Port Huron, MI

6:08 AM EDT on August 24, 2019 (GMT -0400)
Saint Clair County International

Weather History for KPHN - June, 2019

Change the Weather History Date:

Saturday, June 1, 2019

  Actual Average (KMTC) Record (KMTC)
Temperature  
Mean Temperature 68 °F -  
Max Temperature 77 °F 72 °F 91 °F (1988)
Min Temperature 60 °F 51 °F 35 °F (1966)
Cooling Degree Days 4    
Growing Degree Days 18 (Base 50)    
Moisture  
Dew Point 57 °F    
Average Humidity 70    
Maximum Humidity 88    
Minimum Humidity 53    
Precipitation  
Precipitation 0.00 in - - ()
Sea Level Pressure  
Sea Level Pressure 29.77 in    
Wind  
Wind Speed 3 mph (SSW)    
Max Wind Speed 23 mph    
Max Gust Speed 43 mph    
Visibility 10 miles    
Events Rain    
Averages and records for this station are not official NWS values.
T = Trace of Precipitation, MM = Missing Value Source: NWS Daily Summary

Daily Weather History Graph

Daily Weather History Graph

Search for Another Location

Airport or City:

Astronomy

Jun. 01, 2019 Rise Set
Actual Time 5:54 AM EDT 9:02 PM EDT
Civil Twilight 5:19 AM EDT 9:36 PM EDT
Nautical Twilight 4:35 AM EDT 10:20 PM EDT
Astronomical Twilight 3:43 AM EDT 11:13 PM EDT
Moon 5:02 AM EDT (6/1) 7:10 PM EDT (6/1)
Length of Visible Light 16h 16m
Length of Day
15h 07m
Waning Crescent, 4% of the Moon is Illuminated
Jun 1
Waning Crescent
Jun 3
New
Jun 10
First Quarter
Jun 17
Full
Jun 25
Last Quarter

Hourly Weather History & Observations

Time (EDT) Temp. Dew Point Humidity Pressure Visibility Wind Dir Wind Speed Gust Speed Precip Events Conditions
12:19 AM 60.8 °F 55.4 °F 82% 29.78 in 10.0 mi SSW 3.5 mph - N/A   Clear
12:37 AM 64.4 °F 55.4 °F 73% 29.78 in 10.0 mi Calm Calm - N/A   Clear
12:55 AM 66.2 °F 53.6 °F 64% 29.78 in 10.0 mi Calm Calm - N/A   Scattered Clouds
1:15 AM 64.4 °F 55.4 °F 73% 29.77 in 10.0 mi Calm Calm - N/A   Scattered Clouds
1:16 AM 64.4 °F 55.4 °F 73% 29.77 in 10.0 mi SW 3.5 mph - N/A   Scattered Clouds
1:35 AM 66.2 °F 55.4 °F 68% 29.76 in 10.0 mi Calm Calm - N/A   Clear
1:58 AM 69.8 °F 55.4 °F 60% 29.75 in 10.0 mi SW 4.6 mph - N/A   Clear
2:16 AM 69.8 °F 55.4 °F 60% 29.74 in 10.0 mi SW 4.6 mph - N/A   Clear
2:35 AM 69.8 °F 55.4 °F 60% 29.72 in 10.0 mi SSW 6.9 mph - N/A   Clear
2:36 AM 69.8 °F 55.4 °F 60% 29.72 in 10.0 mi SSW 6.9 mph - N/A   Clear
2:55 AM 69.8 °F 55.4 °F 60% 29.74 in 10.0 mi WSW 6.9 mph - N/A   Scattered Clouds
3:19 AM 69.8 °F 55.4 °F 60% 29.71 in 10.0 mi SSW 4.6 mph - N/A Rain Light Rain
3:37 AM 69.8 °F 55.4 °F 60% 29.72 in 10.0 mi Calm Calm - N/A   Scattered Clouds
3:55 AM 68.0 °F 55.4 °F 64% 29.74 in 10.0 mi NW 4.6 mph - N/A   Clear
3:56 AM 68.0 °F 55.4 °F 64% 29.74 in 10.0 mi WNW 3.5 mph - N/A   Clear
4:15 AM 68.0 °F 55.4 °F 64% 29.73 in 10.0 mi Calm Calm - N/A   Clear
4:35 AM 66.2 °F 55.4 °F 68% 29.74 in 10.0 mi Calm Calm - N/A   Clear
4:58 AM 66.2 °F 55.4 °F 68% 29.74 in 10.0 mi Calm Calm - N/A   Clear
5:16 AM 62.6 °F 55.4 °F 77% 29.75 in 10.0 mi Calm Calm - N/A   Clear
5:35 AM 62.6 °F 55.4 °F 77% 29.75 in 10.0 mi NNE 3.5 mph - N/A   Clear
5:55 AM 62.6 °F 57.2 °F 82% 29.77 in 10.0 mi NNE 5.8 mph - N/A   Clear
5:56 AM 62.6 °F 57.2 °F 82% 29.77 in 10.0 mi NNE 4.6 mph - N/A   Clear
6:19 AM 62.6 °F 55.4 °F 77% 29.76 in 10.0 mi ENE 9.2 mph - N/A   Clear
6:37 AM 60.8 °F 53.6 °F 77% 29.77 in 10.0 mi NE 3.5 mph - N/A   Clear
6:55 AM 60.8 °F 53.6 °F 77% 29.77 in 10.0 mi East 3.5 mph - N/A   Scattered Clouds
7:15 AM 60.8 °F 53.6 °F 77% 29.78 in 10.0 mi Calm Calm - N/A   Clear
7:16 AM 60.8 °F 53.6 °F 77% 29.78 in 10.0 mi Calm Calm - N/A   Clear
7:35 AM 62.6 °F 53.6 °F 72% 29.79 in 10.0 mi Calm Calm - N/A   Clear
7:40 AM 62.6 °F 53.6 °F 72% 29.79 in 10.0 mi Calm Calm - N/A   Clear
7:58 AM 62.6 °F 53.6 °F 72% 29.79 in 10.0 mi Calm Calm - N/A   Clear
8:16 AM 62.6 °F 53.6 °F 72% 29.81 in 10.0 mi Calm Calm - N/A   Clear
8:35 AM 64.4 °F 55.4 °F 73% 29.82 in 10.0 mi WNW 3.5 mph - N/A   Clear
8:36 AM 64.4 °F 55.4 °F 73% 29.82 in 10.0 mi Calm Calm - N/A   Clear
8:55 AM 64.4 °F 55.4 °F 73% 29.81 in 10.0 mi Calm Calm - N/A   Clear
8:56 AM 64.4 °F 55.4 °F 73% 29.81 in 10.0 mi Calm Calm - N/A   Clear
9:19 AM 66.2 °F 55.4 °F 68% 29.79 in 10.0 mi SSE 3.5 mph - N/A   Clear
9:37 AM 68.0 °F 57.2 °F 68% 29.79 in 10.0 mi South 3.5 mph - N/A   Clear
9:55 AM 69.8 °F 57.2 °F 64% 29.78 in 10.0 mi South 4.6 mph - N/A   Clear
9:56 AM 69.8 °F 57.2 °F 64% 29.78 in 10.0 mi SSE 4.6 mph - N/A   Clear
10:15 AM 69.8 °F 57.2 °F 64% 29.80 in 10.0 mi Calm Calm - N/A   Clear
10:35 AM 71.6 °F 57.2 °F 60% 29.79 in 10.0 mi Calm Calm - N/A   Clear
10:58 AM 71.6 °F 57.2 °F 60% 29.80 in 10.0 mi Calm Calm - N/A   Mostly Cloudy
11:16 AM 71.6 °F 57.2 °F 60% 29.83 in 10.0 mi WNW 4.6 mph - N/A   Mostly Cloudy
11:35 AM 71.6 °F 57.2 °F 60% 29.82 in 10.0 mi Calm Calm - N/A   Mostly Cloudy
11:55 AM 69.8 °F 59.0 °F 68% 29.77 in 7.0 mi NE 6.9 mph - N/A Rain Heavy Rain
12:19 PM 68.0 °F 60.8 °F 78% 29.77 in 10.0 mi SSE 5.8 mph - N/A   Scattered Clouds
12:37 PM 69.8 °F 60.8 °F 73% 29.78 in 10.0 mi SSW 3.5 mph - N/A   Scattered Clouds
12:55 PM 73.4 °F 60.8 °F 65% 29.78 in 10.0 mi WSW 3.5 mph - N/A   Clear
1:15 PM 75.2 °F 59.0 °F 57% 29.76 in 10.0 mi Calm Calm - N/A   Clear
1:16 PM 75.2 °F 59.0 °F 57% 29.76 in 10.0 mi Calm Calm - N/A   Clear
1:35 PM 75.2 °F 57.2 °F 53% 29.75 in 10.0 mi Calm Calm - N/A   Clear
1:40 PM 73.4 °F 57.2 °F 57% 29.76 in 10.0 mi SSW 8.1 mph - N/A   Clear
1:58 PM 75.2 °F 60.8 °F 61% 29.74 in 10.0 mi SW 5.8 mph - N/A   Clear
2:16 PM 75.2 °F 59.0 °F 57% 29.73 in 10.0 mi SSW 5.8 mph - N/A   Clear
2:35 PM 77.0 °F 59.0 °F 54% 29.74 in 10.0 mi SW 6.9 mph - N/A   Clear
2:36 PM 77.0 °F 60.8 °F 57% 29.74 in 10.0 mi SSW 8.1 mph - N/A   Clear
2:55 PM 75.2 °F 59.0 °F 57% 29.76 in 10.0 mi SW 3.5 mph - N/A   Mostly Cloudy
2:56 PM 75.2 °F 59.0 °F 57% 29.76 in 10.0 mi SW 3.5 mph - N/A   Mostly Cloudy
3:19 PM 69.8 °F 57.2 °F 64% 29.84 in 4.0 mi NW 23.0 mph 42.6 mph N/A Rain Heavy Rain
3:38 PM 60.8 °F 55.4 °F 82% 29.84 in 5.0 mi Calm Calm - N/A Rain Rain
4:18 PM 60.8 °F 57.2 °F 88% 29.82 in 7.0 mi Calm Calm - N/A Rain Light Rain
4:59 PM 60.8 °F 57.2 °F 88% 29.76 in 7.0 mi ESE 6.9 mph - N/A Rain Light Rain
5:38 PM 62.6 °F 57.2 °F 82% 29.71 in 10.0 mi ESE 5.8 mph - N/A Rain Rain
6:20 PM 62.6 °F 59.0 °F 88% 29.73 in 10.0 mi South 3.5 mph - N/A   Clear
6:59 PM 62.6 °F 59.0 °F 88% 29.72 in 5.0 mi Calm Calm - N/A Rain Light Rain
7:38 PM 62.6 °F 59.0 °F 88% 29.74 in 5.0 mi WSW 3.5 mph - N/A   Scattered Clouds
8:22 PM 62.6 °F 59.0 °F 88% 29.74 in 5.0 mi WSW 3.5 mph - N/A   Clear
9:10 PM 62.6 °F 59.0 °F 88% 29.75 in 10.0 mi SSW 5.8 mph - N/A   Mostly Cloudy
9:38 PM 62.6 °F 59.0 °F 88% 29.77 in 10.0 mi SW 3.5 mph - N/A   Overcast